This is the latest recevied weather packets stored in our database for station/object DH2PG-6. If no packets are shown the sender has not sent any weather packets the latest 10 day(s).
| Time | Temp. | Humidity | Pressure | Rain* | Wind** | Luminosity | Snow |
|---|---|---|---|---|---|---|---|
| 1788201631 | 14.44° C | 87% | 1014.5 hPa | 3.56 mm | - | - | - |
| 1788201331 | 14.44° C | 86% | 1014.5 hPa | 3.56 mm | - | - | - |
| 1788201030 | 14.44° C | 86% | 1014.3 hPa | 3.05 mm | - | - | - |
| 1788200730 | 15° C | 84% | 1014.3 hPa | 3.05 mm | - | - | - |
| 1788200430 | 15.56° C | 82% | 1014.3 hPa | 2.54 mm | - | - | - |
| 1788200130 | 16.67° C | 79% | 1014.2 hPa | 0 mm | - | - | - |
| 1788199829 | 16.67° C | 76% | 1014 hPa | 0 mm | - | - | - |
| 1788199229 | 16.67° C | 74% | 1013.6 hPa | 0 mm | - | - | - |
| 1788198928 | 16.67° C | 74% | 1013.6 hPa | 0 mm | - | - | - |
| 1788198628 | 16.67° C | 74% | 1013.6 hPa | 0 mm | - | - | - |
| 1788198328 | 17.22° C | 75% | 1013.5 hPa | 0 mm | - | - | - |
| 1788198028 | 17.22° C | 75% | 1013.5 hPa | 0 mm | - | - | - |
| 1788197727 | 17.22° C | 75% | 1013.4 hPa | 0 mm | - | - | - |
| 1788197427 | 17.22° C | 75% | 1013.4 hPa | 0 mm | - | - | - |
| 1788197127 | 17.22° C | 74% | 1013.4 hPa | 0 mm | - | - | - |
| 1788196526 | 17.22° C | 73% | 1013.3 hPa | 0 mm | - | - | - |
| 1788196226 | 17.78° C | 73% | 1013.3 hPa | 0 mm | - | - | - |
| 1788195926 | 17.22° C | 71% | 1013.2 hPa | 0 mm | - | - | - |
| 1788195625 | 17.78° C | 71% | 1013.1 hPa | 0 mm | - | - | - |
| 1788195325 | 18.33° C | 69% | 1013.1 hPa | 0 mm | - | - | - |
| 1788195025 | 18.33° C | 67% | 1013.1 hPa | 0 mm | - | - | - |
| 1788194725 | 18.89° C | 65% | 1013.1 hPa | 0 mm | - | - | - |
| 1788194440 | 18.89° C | 64% | 1012.9 hPa | 0 mm | - | - | - |
| 1788193824 | 19.44° C | 65% | 1012.8 hPa | 0 mm | - | - | - |
| 1788193523 | 18.89° C | 67% | 1012.9 hPa | 0 mm | - | - | - |
* Rain latest hour (hover to see other rain measurements)
** Current wind speed in m/s (hover to see current wind gust speed)